Location: Aix-en-Ergny
(50.5839°N, 1.9996°E)
Time: 09:59:59
(UTC+00:00)

Cosmos 1300 - Pass Details

Date: 23 October 2019
Orbit: 511 x 515 km, 82.5° (Epoch: 18 November)

Event Time Altitude Azimuth Distance (km) Brightness Sun altitude
Rises 04:57:25 0° 354° (N) 2,641 6.2 -14.9°
Reaches altitude 10° 04:59:37 10° 360° (N) 1,749 5.4 -14.5°
Maximum altitude 05:03:20 48° 76° (ENE) 679 3.7 -13.9°
Drops below altitude 10° 05:07:01 10° 151° (SSE) 1,732 5.8 -13.4°
Sets 05:09:11 0° 158° (SSE) 2,613 6.6 -13.0°
